Regional Weather Roundup
Issued by NWS

Home | Current Version | Previous Version | Graphics & Text | Print | Product List | Glossary On
Versions: 1 2 3 4 5 6 7 8 9 10 11 12 13 14 15 16 17 18 19 20 21 22 23 24 25 26 27 28 29 30 31 32 33 34 35 36 37 38 39 40 41 42 43 44 45 46 47 48 49 50
000
ASUS43 KTOP 220008
RWRKS

WEATHER ROUNDUP FOR KANSAS
NATIONAL WEATHER SERVICE GOODLAND KS
700 PM CDT SUN SEP 21 2014

NOTE:  "FAIR" INDICATES FEW OR NO CLOUDS BELOW 12,000 FEET WITH NO
SIGNIFICANT WEATHER AND/OR OBSTRUCTIONS TO VISIBILITY.

KSZ001>006-013>018-027>032-041>047-220100-
NORTHWEST KANSAS

CITY           SKY/WX    TMP DP  RH WIND       PRES   REMARKS
GOODLAND       MOCLDY    69  45  41 SE5       30.29S
6HR MIN TEMP:  68; 6HR MAX TEMP:  75;

HAYS           CLEAR     73  37  27 E7        30.24R
HILL CITY      CLEAR     75  39  27 NE9       30.25S
6HR MIN TEMP:  75; 6HR MAX TEMP:  80;

RUSSELL        CLEAR     73  39  29 NE7       30.22R
6HR MIN TEMP:  73; 6HR MAX TEMP:  79;

$$

KSZ061>065-074>080-084>089-220100-
SOUTHWEST KANSAS

CITY           SKY/WX    TMP DP  RH WIND       PRES   REMARKS
DODGE CITY     CLEAR     75  40  28 NE10      30.24R
6HR MIN TEMP:  75; 6HR MAX TEMP:  83;

ELKHART          N/A     78  45  31 E15         N/A
GARDEN CITY    PTCLDY    76  40  27 NE10      30.25R
6HR MIN TEMP:  75; 6HR MAX TEMP:  80;

GREAT BEND     CLEAR     73  43  33 NE7       30.23R
LIBERAL        CLEAR     79  43  27 E14       30.24R
PRATT          PTCLDY    75  37  25 NE9       30.23S
$$

KSZ066>073-081>083-090>101-220100-
SOUTHEAST KANSAS

CITY           SKY/WX    TMP DP  RH WIND       PRES   REMARKS
CHANUTE        CLEAR     73  50  44 N6        30.16R
6HR MIN TEMP:  73; 6HR MAX TEMP:  80;

HUTCHINSON     CLEAR     75  44  33 NE3       30.21R
6HR MIN TEMP:  75; 6HR MAX TEMP:  81;

MEDICINE LODGE   N/A     78  43  28 NE13      30.19R
NEWTON         CLEAR     72  45  37 N7        30.23R
PARSONS        CLEAR     74  53  48 N7        30.16R
6HR MIN TEMP:  74; 6HR MAX TEMP:  82;

WICHITA INTL   PTCLDY    78  39  24 N13       30.19R
6HR MIN TEMP:  78; 6HR MAX TEMP:  85;

WICHITA JABRA  CLEAR     75  40  28 N9        30.19R
6HR MIN TEMP:  75; 6HR MAX TEMP:  82;

WICHITA MCCONL HAZE      75  39  27 N9        30.19R VSB 1
WINFIELD       CLEAR     76  46  34 N9        30.18R
6HR MIN TEMP:  76; 6HR MAX TEMP:  84;

$$

KSZ007>012-019>026-033>040-048>060-102>105-220100-
NORTHEAST KANSAS

CITY           SKY/WX    TMP DP  RH WIND       PRES   REMARKS
CONCORDIA      CLEAR     71  45  39 N7        30.22S
6HR MIN TEMP:  71; 6HR MAX TEMP:  77;

EMPORIA        CLEAR     71  47  42 N8        30.18R
6HR MIN TEMP:  71; 6HR MAX TEMP:  78;

LAWRENCE       CLEAR     70  47  43 N6        30.18R
6HR MIN TEMP:  70; 6HR MAX TEMP:  79;

MANHATTAN      CLEAR     74  44  34 N6        30.19R
6HR MIN TEMP:  74; 6HR MAX TEMP:  80;

MARYSVILLE     CLEAR     70  46  43 N8        30.21R
OLATHE IND     CLEAR     67  49  52 N12       30.18R
6HR MIN TEMP:  67; 6HR MAX TEMP:  76;

OLATHE EXE     CLEAR     71  47  42 N8        30.17R
6HR MIN TEMP:  71; 6HR MAX TEMP:  77;

SALINA         CLEAR     74  43  32 N10       30.21R
6HR MIN TEMP:  74; 6HR MAX TEMP:  80;

TOPEKA BILLARD CLEAR     71  49  45 N7        30.19R
6HR MIN TEMP:  71; 6HR MAX TEMP:  79;

TOPEKA FORBES  CLEAR     71  46  40 N9        30.19R
6HR MIN TEMP:  71; 6HR MAX TEMP:  78; 6HR PCP: TRACE;

$$



USA.gov is the U.S. government's official web portal to all federal, state and local government web resources and services.